User: anonymous   Login
Location: Unspecified
(0.0000°N, 0.0000°E)
Time: 10:05:14
(UTC+01:00)
Language:

Ariane H10 - Orbit

View from above orbital plane
View from above orbital plane
View from above satellite
View from above satellite

Ground track
Ground track

The orbit data is extracted from the following two-line orbital elements,

1 19622U 88098B   18051.36516127 +.00000479 +00000-0 +18715-3 0  9994
2 19622 003.8419 335.4645 6346702 265.0222 025.0489 03.51445995313105
Epoch (UTC): 20 February 2018 08:45:49
Eccentricity: 0.6346702
inclination: 3.8419°
perigee height: 298 km
apogee height: 23493 km
right ascension of ascending node: 335.4645°
argument of perigee: 265.0222°
revolutions per day: 3.51445995
mean anomaly at epoch: 25.0489°
orbit number at epoch: 31310

The dashed part of the orbit path shows where the satellite is in the earth's shadow,  

DLR